Date,TemperatureHighF,TemperatureAvgF,TemperatureLowF,DewpointHighF,DewpointAvgF,DewpointLowF,HumidityHigh,HumidityAvg,HumidityLow,PressureMaxIn,PressureMinIn,WindSpeedMaxMPH,WindSpeedAvgMPH,GustSpeedMaxMPH,PrecipitationSumIn
2013-1-1,56,50,44,53,46,39,91,88,81,30.21,29.98,11,2,15,0.05
2013-1-2,44,40,37,40,35,33,89,83,78,30.32,30.20,10,2,12,0.01
2013-1-3,53,41,30,39,34,28,91,76,46,30.43,30.31,8,1,10,0.05
2013-1-4,50,44,41,41,38,34,90,80,64,30.53,30.36,2,0,6,0.01
2013-1-5,46,44,41,43,41,39,91,90,86,30.39,30.27,2,0,6,0.02
2013-1-6,58,44,35,44,35,-100,91,80,50,30.37,0.00,5,-31,12,0.01
2013-1-7,56,42,30,43,36,27,91,82,50,30.35,30.13,4,0,7,0.06
2013-1-8,59,53,44,56,50,42,91,90,86,30.14,29.97,5,0,13,0.02
2013-1-9,64,62,58,61,58,56,92,89,87,30.10,29.94,4,0,13,0.06
2013-1-10,69,61,49,61,56,47,91,85,61,30.07,29.95,6,0,8,0.10
2013-1-11,71,56,42,61,51,39,91,82,55,30.04,29.89,4,0,5,0.04
2013-1-12,74,69,63,69,66,60,90,88,82,29.91,29.74,6,0,10,2.12
2013-1-13,69,44,39,65,40,36,91,86,78,30.17,29.75,12,3,18,0.46
2013-1-14,43,38,35,39,34,32,91,87,79,30.27,30.12,9,1,18,0.21
2013-1-15,36,34,32,33,31,30,92,91,87,30.17,30.06,8,2,12,0.20
2013-1-16,49,39,34,35,30,23,92,74,39,30.25,30.14,9,2,12,0.00
2013-1-17,61,42,29,41,32,26,91,72,39,30.48,30.24,8,1,17,0.00
2013-1-18,60,42,30,43,34,20,91,75,23,30.55,30.37,4,0,5,0.00
2013-1-19,63,46,31,47,37,29,91,76,40,30.37,30.21,3,0,6,0.01
2013-1-20,68,48,35,54,42,33,91,82,49,30.28,30.13,4,0,5,0.00
2013-1-21,69,52,38,54,46,35,91,81,54,30.23,30.14,2,0,5,0.00
2013-1-22,68,50,38,51,42,33,90,77,51,30.35,30.23,3,0,6,0.00
2013-1-23,75,58,43,58,50,41,91,78,45,30.35,30.21,3,0,8,0.00
2013-1-24,69,62,53,62,58,50,90,87,79,30.28,30.14,3,0,7,0.00
2013-1-25,78,66,62,61,59,58,90,80,53,30.19,30.08,5,0,9,0.00
2013-1-26,73,62,53,60,56,51,91,82,61,30.17,30.11,1,0,4,0.00
2013-1-27,75,64,50,63,58,47,91,81,63,30.16,30.05,4,0,9,0.00
2013-1-28,77,70,65,66,64,62,90,82,63,30.13,29.99,4,0,6,0.00
2013-1-29,74,69,57,69,65,54,90,87,70,29.98,29.59,17,1,21,0.36
2013-1-31,66,47,31,39,31,25,91,61,22,30.29,30.18,4,0,9,0.00
2013-2-1,68,54,42,44,40,35,87,64,36,30.38,30.23,3,0,7,0.00
2013-2-2,73,58,47,54,49,43,88,73,47,30.28,30.16,11,0,13,0.00
2013-2-3,70,52,37,46,39,31,91,67,25,30.32,30.08,4,0,6,0.00
2013-2-4,62,54,45,59,50,41,90,88,86,30.08,29.87,2,0,4,0.05
2013-2-5,74,62,55,64,56,52,89,83,61,30.03,29.90,3,0,8,0.01
2013-2-6,64,60,56,61,57,53,92,89,86,30.08,29.93,1,0,8,0.05
2013-2-7,66,59,54,59,55,51,90,86,78,29.99,29.90,2,0,4,0.00
2013-2-8,61,56,46,54,51,44,91,82,69,30.19,29.97,10,1,14,0.00
2013-2-9,63,54,45,60,50,42,91,86,75,30.18,29.92,5,0,8,0.00
2013-2-10,68,63,56,65,59,53,91,85,63,29.99,29.78,7,0,16,0.86
2013-2-11,58,53,51,55,50,48,91,88,74,30.13,30.00,4,0,9,0.21
2013-2-12,55,53,50,53,50,46,91,89,84,30.04,29.82,7,1,14,1.04
2013-2-13,56,47,36,46,40,33,91,78,57,30.12,29.93,10,2,17,0.00
2013-2-14,64,46,32,50,37,30,91,77,36,30.15,30.06,3,0,6,0.01
2013-2-15,62,46,35,42,37,29,91,71,41,30.32,30.11,16,2,17,0.00
2013-2-16,56,43,30,35,28,22,88,59,30,30.41,30.24,13,2,19,0.00
2013-2-17,71,52,33,47,39,31,91,65,32,30.25,30.07,6,0,10,0.00
2013-2-18,69,60,54,62,54,43,91,81,65,30.07,29.84,16,1,23,0.28
2013-2-19,65,50,37,45,36,26,91,65,24,30.28,30.07,6,1,10,0.00
2013-2-20,55,52,46,42,36,30,83,56,42,30.20,29.88,4,0,14,0.00
2013-2-21,72,59,47,65,52,40,90,77,47,29.88,29.64,7,1,21,0.43
2013-2-22,55,50,45,47,45,42,91,84,73,30.04,29.87,6,1,9,0.00
2013-2-23,68,52,40,48,43,37,89,74,39,30.03,29.91,4,0,9,0.00
2013-2-24,70,54,37,50,44,35,91,71,40,29.98,29.70,6,0,8,0.00
2013-2-25,73,60,46,63,46,28,90,64,24,29.70,29.44,18,2,18,0.02
2013-2-26,60,50,42,41,35,32,87,60,41,29.93,29.65,14,3,25,0.00
2013-2-27,65,50,36,47,35,27,91,62,31,30.14,29.91,17,2,18,0.00
2013-2-28,58,45,36,36,30,26,81,57,31,30.26,30.12,11,2,19,0.00
2013-3-1,60,46,34,33,29,25,89,55,28,30.26,30.13,17,3,23,0.00
2013-3-2,51,40,31,33,26,21,83,60,33,30.35,30.21,15,3,19,0.00
2013-3-3,67,48,28,42,32,25,90,60,30,30.28,30.01,5,1,8,0.00
2013-3-4,79,64,50,60,53,42,89,71,43,30.01,29.73,8,1,15,0.00
2013-3-5,66,59,39,60,40,25,88,53,24,30.32,29.78,16,4,29,0.00
2013-3-6,39,36,33,31,28,27,80,74,67,30.36,30.30,0,0,3,0.00
2013-3-7,67,51,35,41,35,30,89,60,28,30.32,30.18,5,0,7,0.00
2013-3-8,73,57,42,55,47,38,90,70,48,30.26,30.10,5,0,9,0.00
2013-3-9,74,64,57,62,57,49,90,79,63,30.10,29.82,6,1,11,0.02
2013-3-10,64,58,46,62,52,36,91,80,52,30.04,29.72,9,2,26,1.05
2013-3-11,59,48,38,36,32,27,83,58,32,30.11,29.98,9,2,16,0.00
2013-3-12,70,49,32,43,34,29,91,64,22,30.27,30.08,4,0,9,0.00
2013-3-13,70,53,38,42,36,28,89,61,22,30.45,30.28,8,0,9,0.00
2013-3-14,77,56,38,49,42,35,90,64,31,30.42,30.25,6,0,6,0.00
2013-3-15,81,65,46,54,48,43,90,60,31,30.26,30.03,7,1,11,0.00
2013-3-16,81,68,58,59,56,54,90,69,39,30.04,29.82,6,1,13,0.00
2013-3-17,82,69,60,65,61,56,90,76,48,29.88,29.69,5,0,15,0.00
2013-3-18,85,73,64,67,62,53,90,71,45,29.95,29.74,8,1,11,0.00
2013-3-19,77,65,52,54,47,40,79,55,37,30.06,29.94,6,1,13,0.00
2013-3-20,72,58,48,47,41,29,90,60,21,30.24,30.04,10,1,15,0.24
2013-3-21,73,57,46,54,44,37,87,64,35,30.06,29.72,5,0,11,0.00
2013-3-22,84,70,60,67,62,54,89,76,51,29.77,29.65,4,0,8,0.00
2013-3-23,67,59,54,59,55,51,90,86,75,29.81,29.62,6,1,8,0.00
2013-3-24,59,52,41,56,39,30,89,65,39,30.14,29.65,16,4,25,0.00
2013-3-25,58,44,32,33,25,19,84,53,22,30.37,30.14,12,2,20,0.00
2013-3-26,59,44,29,32,24,19,83,51,23,30.49,30.33,17,2,17,0.00
2013-3-27,70,50,32,43,34,29,90,59,26,30.41,30.19,5,0,9,0.00
2013-3-28,72,61,52,55,50,43,81,68,51,30.31,30.18,3,0,6,0.00
2013-3-29,78,64,55,60,56,52,90,78,49,30.25,30.13,4,0,8,0.00
2013-3-30,79,67,58,66,60,56,91,79,50,30.16,29.95,4,0,13,0.42
2013-3-31,74,64,58,66,61,56,91,88,74,30.02,29.88,8,0,20,0.74
2013-4-1,81,66,55,65,57,52,91,75,43,30.09,29.96,4,0,7,0.00
2013-4-2,78,64,55,65,59,52,90,83,56,30.06,29.92,0,0,7,0.53
2013-4-3,63,51,46,60,48,43,90,89,87,30.10,29.84,8,1,22,0.70
2013-4-4,49,47,44,44,43,41,91,85,78,30.16,30.04,8,2,13,0.00
2013-4-5,73,56,40,53,45,38,91,70,39,30.24,30.09,3,0,6,0.00
2013-4-6,77,63,45,57,52,42,90,71,46,30.11,29.94,4,0,11,0.00
2013-4-7,80,70,59,62,59,56,90,70,52,30.01,29.85,4,0,8,0.00
2013-4-8,82,72,65,66,63,61,89,75,55,29.90,29.79,5,1,10,0.00
2013-4-9,85,74,67,70,66,63,87,79,54,29.84,29.75,9,1,13,0.00
2013-4-10,80,67,46,72,63,44,90,85,73,29.89,29.72,6,1,16,0.75
2013-4-11,68,51,41,52,43,39,91,78,39,29.91,29.78,7,2,17,0.43
2013-4-12,78,55,41,55,45,38,90,73,29,30.03,29.88,2,0,7,0.00
2013-4-13,82,64,46,57,50,42,90,65,26,30.02,29.82,2,0,8,0.00
2013-4-14,84,66,51,65,57,48,90,76,46,29.82,29.65,4,0,6,0.00
2013-4-15,88,75,65,72,67,62,89,76,53,29.87,29.74,6,0,9,0.00
2013-4-16,86,77,71,74,70,68,89,81,60,29.98,29.85,5,0,10,0.01
2013-4-17,86,77,71,73,71,68,89,81,64,29.98,29.79,8,1,14,0.02
2013-4-18,78,65,49,71,60,45,89,85,78,30.07,29.71,14,2,18,0.67
2013-4-19,63,50,40,45,36,30,89,62,33,30.23,30.07,18,3,19,0.00
2013-4-20,73,55,36,49,40,34,90,64,29,30.25,30.08,8,0,10,0.00
2013-4-21,76,59,43,52,46,40,89,68,35,30.21,30.09,2,0,9,0.00
2013-4-22,81,63,45,58,51,42,89,68,37,30.15,29.94,3,0,7,0.00
2013-4-23,82,70,60,67,62,56,88,77,57,30.03,29.89,3,0,8,0.00
2013-4-24,68,56,46,61,46,40,85,72,48,30.24,29.99,10,3,20,0.02
2013-4-25,75,62,53,51,47,41,83,61,33,30.34,30.22,6,1,10,0.00
2013-4-26,80,69,58,68,59,47,85,71,61,30.24,30.06,5,0,7,0.00
2013-4-27,86,73,66,70,66,63,89,81,55,30.13,29.96,3,0,8,0.02
2013-4-28,87,73,63,65,62,59,88,70,41,30.02,29.87,5,0,8,0.00
2013-4-29,86,70,56,68,62,53,88,76,49,29.96,29.83,4,0,7,0.00
2013-4-30,84,69,58,69,62,54,88,80,56,29.88,29.76,3,0,9,0.90
2013-5-1,81,71,65,71,65,61,88,81,62,29.91,29.83,4,0,8,0.01
2013-5-2,75,64,48,65,59,44,89,84,69,30.17,29.91,15,3,19,0.00
2013-5-3,64,51,43,44,38,31,89,66,30,30.17,30.03,14,3,21,0.01
2013-5-4,76,58,39,47,40,35,90,57,23,30.06,29.85,10,1,19,0.00
2013-5-5,68,54,44,47,42,38,88,66,40,30.10,29.96,12,2,16,0.00
2013-5-6,80,61,44,58,50,41,89,70,36,30.09,29.96,7,0,10,0.00
2013-5-7,85,69,55,62,56,52,89,67,33,30.07,29.96,3,0,7,0.00
2013-5-8,86,71,57,66,60,53,89,71,45,30.07,29.96,5,0,8,0.00
2013-5-9,78,71,67,71,66,63,88,85,75,30.04,29.88,5,0,6,0.95
2013-5-10,81,70,65,70,65,61,89,84,66,30.01,29.86,4,0,5,0.03
2013-5-11,83,70,61,68,62,57,89,75,45,30.12,29.94,6,1,10,0.02
2013-5-12,77,64,53,58,52,47,89,70,37,30.22,30.09,8,1,12,0.00
2013-5-13,84,65,47,59,51,44,89,66,29,30.29,30.17,2,0,7,0.00
2013-5-14,87,70,55,64,56,50,89,65,35,30.24,30.08,9,0,9,0.00
2013-5-15,74,68,65,67,64,56,89,85,68,30.14,29.93,4,0,7,0.21
2013-5-16,86,74,64,73,67,61,89,80,59,29.94,29.82,5,0,12,0.07
2013-5-17,89,79,72,76,71,68,88,79,61,29.96,29.85,3,0,9,0.00
2013-5-18,92,80,73,75,71,69,87,75,55,29.97,29.89,5,0,8,0.00
2013-5-19,91,81,73,73,70,68,87,72,47,29.92,29.81,5,1,10,0.00
2013-5-20,89,80,74,76,73,70,88,79,60,29.92,29.79,5,0,11,0.00
2013-5-21,90,80,65,74,71,62,88,75,55,29.93,29.70,7,1,17,1.07
2013-5-22,88,74,66,74,68,62,89,81,58,29.94,29.76,4,0,11,0.03
2013-5-23,91,78,68,77,70,64,89,79,58,30.06,29.93,2,0,5,0.00
2013-5-24,90,77,64,75,70,61,89,80,58,30.16,30.02,12,0,12,0.51
2013-5-25,89,75,68,76,69,65,89,82,60,30.18,30.09,3,0,10,0.37
2013-5-26,86,75,69,76,70,65,89,86,71,30.13,30.01,1,0,5,0.06
2013-5-27,90,79,70,74,70,67,89,75,51,30.06,29.92,5,0,10,0.00
2013-5-28,90,80,74,73,70,67,88,72,47,29.98,29.87,5,1,9,0.00
2013-5-29,87,79,73,73,72,70,88,78,60,29.93,29.83,6,1,9,0.00
2013-5-30,90,81,75,76,73,71,88,78,60,29.90,29.81,5,0,10,0.00
2013-5-31,94,83,77,78,75,73,88,78,56,29.91,29.82,7,0,9,0.00
2013-6-1,95,84,78,79,75,73,86,75,56,29.91,29.82,4,0,12,0.00
2013-6-2,83,72,66,74,67,62,89,85,64,29.96,29.88,10,1,13,2.56
2013-6-3,89,74,62,71,64,59,88,74,48,29.98,29.85,4,0,7,0.00
2013-6-4,92,79,66,74,70,63,89,75,51,29.95,29.82,1,0,5,0.00
2013-6-5,94,80,68,78,71,65,88,76,56,29.92,29.72,2,0,7,0.00
2013-6-6,78,72,68,74,69,64,89,88,82,29.91,29.75,5,0,19,0.69
2013-6-7,84,72,65,70,65,62,89,80,53,29.94,29.86,4,0,9,0.00
2013-6-8,89,76,64,73,66,60,89,74,49,29.94,29.84,0,0,0,0.00
2013-6-9,89,76,69,78,70,66,89,84,67,29.96,29.86,5,0,15,0.45
2013-6-10,94,80,69,78,72,65,89,78,55,30.00,29.93,0,0,1,0.00
2013-6-11,95,82,74,81,75,70,89,81,57,30.06,29.97,0,0,2,0.05
2013-6-12,94,83,74,78,75,70,89,77,54,30.08,29.96,2,0,7,0.00
2013-6-13,95,85,75,79,75,71,88,73,52,30.08,29.90,7,0,8,0.00
2013-6-14,96,85,75,82,69,-100,81,68,54,29.99,0.00,2,-26,11,0.00
2013-6-15,95,83,76,80,67,-100,80,67,59,30.00,29.89,3,-29,5,0.00
2013-6-16,94,83,75,78,66,52,78,58,42,30.04,29.91,0,0,1,0.01
2013-6-17,93,83,76,79,69,-100,82,68,57,30.01,29.88,0,-12,0,0.00
2013-6-18,91,80,73,78,72,65,84,77,62,29.97,29.90,5,0,10,0.03
2013-6-19,88,78,72,79,71,-100,87,80,69,30.01,29.94,0,-13,1,0.10
2013-6-20,94,84,76,78,70,-100,86,71,52,30.10,29.98,0,-13,0,0.00
2013-6-21,95,83,74,79,75,70,88,76,52,30.11,30.02,0,0,0,0.00
2013-6-22,94,82,72,78,70,-100,88,73,52,30.08,29.95,0,-10,0,0.00
2013-6-23,94,82,72,78,70,-100,88,71,50,30.04,29.94,2,-21,5,0.00
2013-6-24,94,83,76,82,75,72,88,79,53,30.08,29.98,4,0,7,0.11
2013-6-25,94,85,78,78,76,74,88,75,53,30.05,29.92,5,0,8,0.00
2013-6-26,96,85,77,77,75,73,88,73,50,30.03,29.90,4,0,11,0.00
2013-6-27,97,83,76,79,74,72,88,76,46,30.04,29.90,5,0,8,0.00
2013-6-28,97,85,77,78,75,72,88,72,51,29.96,29.77,4,0,11,0.00
2013-6-29,100,86,75,77,71,65,88,64,34,29.82,29.73,15,1,16,0.00
2013-6-30,94,80,65,67,61,55,89,58,27,29.86,29.78,10,1,19,0.00
2013-7-1,89,76,64,66,62,58,86,64,35,29.95,29.86,0,0,0,0.00
2013-7-2,93,76,63,71,64,59,89,69,33,30.02,29.94,1,0,10,0.00
2013-7-3,92,76,64,69,65,61,89,70,39,30.05,29.93,1,0,5,0.00
2013-7-4,94,78,66,70,66,60,88,67,34,30.01,29.91,1,0,1,0.00
2013-7-5,97,81,67,70,65,60,88,61,30,30.00,29.88,4,0,6,0.00
2013-7-6,97,80,72,75,70,65,88,73,35,29.98,29.87,0,0,0,0.00
2013-7-7,95,80,74,78,74,70,88,80,50,30.02,29.93,5,0,7,0.10
2013-7-8,94,80,75,78,73,69,86,79,52,30.14,30.02,4,0,10,0.22
2013-7-9,98,85,74,78,73,67,85,70,43,30.16,30.02,0,0,1,0.00
2013-7-10,98,86,75,77,74,68,83,68,40,30.09,29.93,4,0,7,0.00
2013-7-11,96,84,77,78,75,72,84,75,51,30.01,29.90,2,0,8,0.00
2013-7-12,100,84,74,77,72,68,84,69,38,29.98,29.85,5,0,10,0.00
2013-7-13,98,84,74,74,64,50,82,56,20,29.99,29.87,7,0,11,0.00
2013-7-14,87,79,73,74,70,67,84,74,59,29.98,29.88,0,0,0,0.01
2013-7-15,79,73,71,73,67,64,84,81,79,30.05,29.93,1,0,4,0.03
2013-7-24,95,84,77,78,74,73,87,75,48,30.01,29.87,6,0,14,0.00
2013-7-25,97,84,73,78,73,68,87,72,47,30.04,29.95,3,0,6,0.00
2013-7-26,95,85,77,77,74,71,87,71,45,30.04,29.87,4,0,9,0.00
2013-7-27,88,80,73,76,72,68,87,79,59,29.95,29.89,8,1,12,0.12
2013-7-28,95,81,68,76,71,63,87,73,48,29.99,29.90,4,0,8,0.00
2013-7-29,98,85,76,78,73,69,86,69,45,30.07,29.98,6,0,11,0.00
2013-7-30,98,85,76,76,72,68,85,67,39,30.14,30.00,5,0,9,0.00
2013-7-31,100,86,76,75,71,59,85,65,26,30.10,29.93,4,0,9,0.00
2013-8-1,102,86,78,77,74,72,85,70,40,30.03,29.89,4,0,9,0.00
2013-8-2,100,86,74,77,72,68,86,66,35,29.98,29.90,2,0,8,0.00
2013-8-3,99,87,77,76,74,71,84,67,41,30.05,29.96,4,0,7,0.00
2013-8-4,101,87,76,78,74,69,84,67,39,30.10,29.95,4,0,8,0.00
2013-8-5,101,87,77,77,74,68,84,66,35,30.05,29.89,5,0,12,0.00
2013-8-6,103,89,78,78,74,70,84,65,36,29.98,29.83,6,0,12,0.00
2013-8-7,103,88,79,77,69,-100,84,59,35,29.96,29.81,4,-24,9,0.00
2013-8-8,101,89,79,75,72,67,84,61,33,29.95,29.83,4,0,9,0.00
2013-8-9,102,88,79,77,67,-100,82,56,33,29.98,29.86,4,-30,10,0.00
2013-8-10,100,84,74,79,74,67,84,74,43,30.07,29.95,3,0,9,0.04
2013-8-11,98,82,71,78,71,63,84,71,43,30.09,29.98,4,0,8,0.02
2013-8-12,99,86,76,77,73,69,85,68,41,30.09,29.94,5,0,13,0.00
2013-8-13,102,87,78,76,73,66,85,66,33,30.04,29.88,10,0,12,0.00
2013-8-14,94,82,76,76,73,68,85,76,52,30.01,29.91,8,1,17,0.14
2013-8-15,94,80,69,72,66,61,84,66,37,30.05,29.92,4,0,9,0.00
2013-8-16,93,79,65,69,64,60,85,63,38,30.03,29.91,5,0,10,0.00
2013-8-17,92,76,65,65,60,-100,84,60,33,30.04,29.93,8,-10,14,0.00
2013-8-18,95,79,65,71,65,60,85,65,36,30.05,29.96,4,0,11,0.00
2013-8-19,97,81,67,69,64,58,85,60,28,30.07,29.93,9,0,10,0.00
2013-8-20,98,83,68,73,66,59,86,62,28,30.05,29.95,7,0,10,0.00
2013-8-21,98,84,71,75,69,65,85,64,36,30.11,29.97,4,0,10,0.00
2013-8-22,99,85,73,75,71,68,84,65,39,30.10,29.94,4,0,15,0.00
2013-8-23,100,86,72,75,70,66,85,62,35,30.03,29.88,5,0,11,0.00
2013-8-24,100,86,74,74,70,66,85,62,34,30.06,29.96,9,1,12,0.00
2013-8-25,98,84,73,73,70,68,85,66,39,30.14,30.04,7,1,15,0.00
2013-8-26,91,78,72,74,71,66,85,78,50,30.18,30.08,2,0,13,0.05
2013-8-27,95,80,70,74,68,63,85,69,43,30.14,30.02,6,0,7,0.00
2013-8-28,100,87,73,72,69,64,85,58,31,30.09,29.95,6,0,13,0.00
2013-8-29,102,87,76,73,68,63,83,57,29,30.06,29.93,6,0,11,0.00
2013-8-30,101,87,76,76,71,59,85,63,25,30.02,29.87,5,0,10,0.00
2013-8-31,100,88,76,74,71,67,85,60,34,29.95,29.81,5,0,10,0.00
2013-9-1,100,86,76,75,70,64,85,62,30,29.95,29.81,5,0,12,0.00
2013-9-2,101,84,76,76,71,66,86,67,32,29.99,29.84,8,0,13,0.00
2013-9-3,99,82,75,79,72,69,86,74,40,29.97,29.87,5,0,16,0.04
2013-9-4,99,79,72,78,71,66,86,78,43,30.05,29.94,1,0,8,0.05
2013-9-5,100,83,71,77,69,63,85,65,34,30.11,29.97,6,0,11,0.00
2013-9-6,98,83,70,76,70,65,86,69,40,30.09,29.95,2,0,7,0.00
2013-9-7,96,79,70,79,71,66,87,78,45,30.06,29.95,4,0,9,0.15
2013-9-8,96,80,68,76,68,62,87,69,39,30.02,29.89,5,0,9,0.00
2013-9-9,96,82,69,75,68,60,87,67,30,30.03,29.94,6,0,7,0.00
2013-9-10,92,81,70,74,69,65,87,69,42,30.11,30.00,1,0,10,0.00
2013-9-11,95,80,71,78,72,67,88,77,44,30.12,30.00,2,0,9,0.01
2013-9-12,96,80,69,74,68,64,87,69,35,30.07,29.90,2,0,8,0.00
2013-9-13,100,83,70,72,68,63,87,63,32,29.95,29.79,8,0,11,0.00
2013-9-14,95,83,72,70,66,61,80,58,38,29.97,29.86,11,0,11,0.00
2013-9-15,97,83,69,73,66,61,79,60,36,30.04,29.94,4,0,8,0.00
2013-9-16,98,84,71,73,68,60,87,64,29,30.07,29.95,5,0,10,0.00
2013-9-17,95,82,71,74,69,66,87,67,39,30.09,29.93,7,0,10,0.00
2013-9-18,97,83,71,74,70,65,87,67,37,30.02,29.90,4,0,10,0.00
2013-9-19,96,82,74,75,73,70,87,74,44,30.00,29.87,4,0,11,0.00
2013-9-20,78,72,70,74,64,-100,87,79,76,29.93,29.77,16,-23,21,3.81
2013-9-21,83,72,63,68,64,59,86,75,56,29.87,29.79,9,1,17,3.83
2013-9-22,85,68,56,59,55,50,87,68,31,29.89,29.77,6,0,15,0.00
2013-9-23,90,72,56,68,61,52,87,71,42,29.86,29.75,3,0,9,0.00
2013-9-24,93,79,67,72,66,59,87,69,34,29.87,29.79,6,0,13,0.00
2013-9-25,94,74,59,64,58,49,87,65,22,29.88,29.78,5,0,10,0.00
2013-9-26,93,74,58,69,61,53,87,68,30,29.94,29.83,0,0,7,0.00
2013-9-27,92,76,62,73,66,57,87,73,44,29.99,29.90,3,0,12,0.00
2013-9-28,89,79,70,74,71,66,87,77,57,30.02,29.91,5,0,12,0.00
2013-9-29,77,74,72,72,68,65,86,81,77,30.01,29.91,0,0,5,2.02
2013-9-30,86,75,71,75,68,64,87,79,65,29.92,29.83,2,0,7,0.01
2013-10-1,90,77,72,76,70,67,87,80,57,29.98,29.89,4,0,14,0.14
2013-10-2,88,77,72,75,69,65,87,77,56,30.03,29.91,1,0,7,0.01
2013-10-3,90,78,72,75,71,67,87,79,56,29.98,29.89,1,0,9,0.00
2013-10-4,90,78,70,76,71,64,87,79,61,29.97,29.89,2,0,8,0.00
2013-10-5,91,78,66,77,72,59,88,80,60,30.00,29.84,9,1,15,0.10
2013-10-6,78,64,56,58,49,40,80,61,28,30.09,29.95,9,1,16,0.00
2013-10-7,81,61,48,54,47,41,89,65,26,30.13,30.03,5,0,13,0.00
2013-10-8,78,62,49,59,52,46,89,75,44,30.12,30.01,5,0,8,0.00
2013-10-9,81,64,50,64,55,47,89,75,45,30.11,30.01,2,0,6,0.00
2013-10-10,84,67,52,66,59,48,88,76,50,30.10,29.96,4,0,7,0.00
2013-10-11,88,74,62,71,66,58,88,78,57,30.00,29.90,3,0,8,0.00
2013-10-12,89,76,70,77,70,63,88,83,67,30.11,29.93,3,0,14,0.16
2013-10-13,79,72,68,71,66,62,88,82,74,30.19,30.05,3,0,11,0.00
2013-10-14,84,74,70,72,68,66,88,82,62,30.13,29.99,2,0,6,0.00
2013-10-15,85,76,70,75,69,64,87,80,67,30.01,29.89,1,0,7,0.01
2013-10-16,72,68,62,67,62,57,87,83,78,30.02,29.89,5,0,8,0.13
2013-10-17,74,62,52,57,54,48,89,75,43,30.09,29.99,9,1,14,0.00
2013-10-18,72,59,51,61,54,47,89,82,66,30.06,29.93,4,0,8,0.01
2013-10-19,68,58,45,55,49,42,89,76,42,30.13,29.97,12,1,15,0.00
2013-10-20,72,54,40,56,46,37,89,76,43,30.12,29.97,2,0,6,0.00
2013-10-21,79,62,49,67,56,46,88,81,63,30.03,29.93,2,0,7,0.00
2013-10-22,72,61,50,58,54,47,89,79,47,30.10,30.00,8,1,13,0.00
2013-10-23,80,60,46,60,50,42,89,74,38,30.14,30.07,0,0,4,0.00
2013-10-24,83,64,49,61,52,45,89,71,34,30.24,30.11,6,0,11,0.00
2013-10-25,71,59,52,54,49,44,89,72,46,30.41,30.24,6,0,10,0.00
2013-10-26,78,61,45,62,53,42,90,76,53,30.30,30.09,5,0,9,0.00
2013-10-27,76,65,59,64,60,55,89,82,60,30.17,30.02,2,0,11,0.52
2013-10-28,79,66,56,68,61,52,89,83,67,30.16,30.04,1,0,5,0.01
2013-10-29,82,72,65,71,66,61,89,81,65,30.16,30.07,5,0,9,0.00
2013-10-30,73,69,68,67,65,63,89,86,81,30.11,29.87,2,0,9,1.21
2013-10-31,74,74,73,68,67,67,81,81,80,29.86,29.77,2,0,9,2.23
2013-11-1,76,62,47,62,54,43,88,76,51,30.00,29.84,3,0,14,0.06
2013-11-2,69,57,45,55,46,35,89,70,30,30.24,29.98,10,1,22,0.01
2013-11-3,66,52,40,51,44,37,89,77,43,30.26,30.11,3,0,11,0.00
2013-11-4,73,61,49,61,55,46,89,81,65,30.16,30.06,2,0,6,0.00
2013-11-5,76,69,63,68,64,59,89,84,74,30.11,30.00,5,0,8,0.00
2013-11-6,75,64,47,70,60,43,89,88,83,30.29,30.02,9,1,20,0.16
2013-11-7,63,50,41,45,41,38,90,75,42,30.44,30.29,9,1,15,0.00
2013-11-8,65,51,42,51,45,39,90,80,48,30.39,30.20,1,0,5,0.00
2013-11-9,59,54,50,54,50,47,90,86,72,30.25,30.18,3,0,3,0.00
2013-11-10,71,56,46,55,49,43,90,80,52,30.33,30.23,4,0,11,0.00
2013-11-11,72,56,44,58,49,41,89,80,54,30.29,30.17,0,0,4,0.00
2013-11-12,62,50,39,57,45,31,88,82,69,30.61,30.25,9,1,18,0.00
2013-11-13,54,39,29,33,28,25,90,70,35,30.64,30.42,8,1,13,0.00
2013-11-14,59,43,29,44,34,26,90,76,39,30.41,30.11,4,0,6,0.00
2013-11-15,73,58,43,63,54,40,90,85,69,30.11,29.93,1,0,5,0.03
2013-11-16,75,66,53,71,62,49,89,85,80,29.97,29.81,1,0,8,0.01
2013-11-17,82,73,66,74,68,61,89,83,73,29.96,29.81,3,0,13,0.15
2013-11-18,76,65,54,63,52,42,89,67,30,30.17,29.96,2,0,11,0.01
2013-11-19,67,56,46,47,42,38,88,62,38,30.20,30.07,5,0,11,0.00
2013-11-20,70,54,41,52,44,38,89,72,38,30.10,29.98,3,0,6,0.00
2013-11-21,73,67,54,68,63,50,90,86,77,30.11,30.02,4,0,9,0.00
2013-11-22,70,57,46,67,54,44,90,89,86,30.30,30.07,7,1,15,0.71
2013-11-23,50,46,42,46,42,34,91,88,73,30.46,30.27,8,2,17,0.17
2013-11-24,46,41,36,36,30,24,90,66,48,30.50,30.33,10,2,18,0.11
2013-11-25,39,38,36,37,35,34,91,90,89,30.33,30.04,8,1,14,2.14
2013-11-26,42,39,37,39,36,35,91,90,90,30.24,30.02,8,2,18,0.44
2013-11-27,48,36,28,34,29,26,91,79,44,30.43,30.25,10,1,14,0.01
2013-11-28,51,36,28,37,30,25,91,80,49,30.51,30.39,3,0,7,0.00
2013-11-29,59,39,27,43,32,25,91,78,35,30.56,30.41,4,0,5,0.01
2013-11-30,61,45,31,50,41,29,91,84,64,30.44,30.22,1,0,2,0.00
2013-12-1,65,58,51,58,53,48,90,85,75,30.26,29.97,0,0,6,0.00
2013-12-2,74,61,51,61,56,48,90,85,63,29.96,29.68,2,0,9,0.00
2013-12-3,80,65,51,65,58,48,89,79,52,29.71,29.60,2,0,11,0.00
2013-12-4,77,70,66,68,65,62,89,85,71,29.83,29.71,2,0,9,0.00
2013-12-5,69,54,40,66,50,37,90,85,76,30.06,29.82,13,2,16,0.00
2013-12-6,41,39,34,38,36,31,90,89,87,30.39,30.00,12,2,17,0.11
2013-12-7,35,34,32,31,30,29,88,84,81,30.44,30.29,10,2,17,0.00
2013-12-8,42,38,34,39,35,30,90,87,80,30.27,30.08,2,0,5,0.00
2013-12-9,41,40,37,40,37,34,95,89,88,30.32,30.10,5,1,11,0.11
2013-12-10,43,35,29,34,30,27,90,83,64,30.47,30.31,10,1,16,0.00
2013-12-11,54,38,28,38,32,26,90,81,50,30.53,30.36,7,0,9,0.00
2013-12-12,53,39,31,34,31,28,90,77,42,30.59,30.38,7,0,10,0.00
2013-12-13,54,43,34,49,39,31,90,85,74,30.38,29.87,3,0,6,0.86
2013-12-14,54,49,39,50,43,32,89,82,72,30.27,29.84,13,3,22,0.01
2013-12-15,54,38,29,38,31,26,90,78,44,30.38,30.27,5,0,12,0.00
2013-12-16,62,42,29,48,34,26,94,77,42,30.35,30.23,2,0,6,0.00
2013-12-17,68,47,32,49,39,29,89,76,40,30.34,30.24,5,0,8,0.00
2013-12-18,67,44,34,53,37,30,89,80,46,30.34,30.22,0,0,5,0.00
2013-12-19,72,60,49,62,55,46,89,84,70,30.13,29.91,4,0,8,0.00
2013-12-20,76,70,65,68,65,61,89,86,77,29.92,29.77,2,0,10,0.00
2013-12-21,71,70,68,67,65,63,89,85,81,29.77,29.51,9,1,15,1.68
2013-12-22,56,47,33,50,38,-100,89,79,76,30.33,0.00,13,-9,21,0.01
2013-12-23,50,36,31,34,30,28,90,80,45,30.54,30.34,7,1,12,0.00
2013-12-24,48,34,28,38,29,24,89,83,58,30.57,30.50,2,0,7,0.00
2013-12-26,60,47,36,43,39,34,94,77,47,30.43,30.30,3,0,7,0.00
2013-12-27,57,45,37,43,36,29,89,73,34,30.47,30.33,2,0,6,0.00
2013-12-28,55,46,40,41,39,36,89,78,49,30.33,30.02,2,0,5,0.00
2013-12-29,60,47,34,49,39,31,91,76,43,30.18,30.00,4,0,13,0.00
2013-12-30,45,39,36,37,32,30,87,76,70,30.40,30.16,9,1,11,0.00
2013-12-31,46,38,34,35,33,31,89,83,64,30.46,30.29,3,0,7,0.00
2014-1-1,61,48,34,54,44,31,89,85,75,30.28,30.02,1,0,6,0.00
2014-1-2,57,42,30,54,30,22,89,64,36,30.45,30.05,16,3,22,0.00